This demonstration page uses our WeatherBlox Daily Observations layout. Learn more.

Hourly Observations for February 27, 2020

Temp ( °F °C ) Dew Point ( °F °C ) Humidity (%) Winds ( mph kmh ) Pressure ( in mb ) Visibility ( mi km ) Precip ( " mm )
12:15 am 00:15 Clear 26 -3.3 21 -6.1 81 81 WSW 5 7 30.25 1024 10 16.0934 0 0
12:35 am 00:35 Partly Cloudy 28 -2.2 21 -6.1 75 75 WSW 6 9 30.23 1024 10 16.0934 0 0
12:55 am 00:55 Mostly Cloudy 29 -1.7 21 -6 73 73 W 12 19 30.21 1023 10 16.0934 0 0
1:15 am 01:15 Partly Cloudy 28 -2.3 21 -6.2 75 75 W 10 17 30.22 1023 10 16.0934 0 0
1:35 am 01:35 Clear 27 -2.8 21 -6.3 77 77 W 9 15 30.21 1023 10 16.0934 0 0
1:55 am 01:55 Partly Cloudy 27 -2.8 21 -6.1 78 78 W 9 15 30.21 1023 10 16.0934 0 0
2:15 am 02:15 Clear 27 -2.8 21 -6.2 78 78 W 8 13 30.21 1023 10 16.0934 0 0
2:35 am 02:35 Clear 27 -2.7 21 -6 78 78 W 10 17 30.21 1023 10 16.0934 0 0
2:55 am 02:55 Clear 27 -3 21 -6 80 80 W 8 13 30.2 1023 10 16.0934 0 0
3:15 am 03:15 Clear 26 -3.1 21 -6.1 80 80 W 8 13 30.2 1023 10 16.0934 0 0
3:35 am 03:35 Clear 27 -3 21 -6 80 80 W 8 13 30.19 1022 10 16.0934 0 0
3:55 am 03:55 Mostly Cloudy 27 -2.9 21 -6 79 79 WNW 7 11 30.19 1022 10 16.0934 0 0
4:15 am 04:15 Cloudy 28 -2.1 23 -5.2 80 80 WNW 7 11 30.18 1022 10 16.0934 0 0
4:35 am 04:35 Cloudy 29 -1.4 24 -4.6 79 79 WNW 8 13 30.17 1022 10 16.0934 0 0
4:55 am 04:55 Mostly Cloudy 28 -2 23 -5 80 80 WNW 6 9 30.17 1022 10 16.0934 0 0
5:15 am 05:15 Partly Cloudy 28 -2.4 23 -5 83 83 WNW 6 9 30.18 1022 10 16.0934 0 0
5:35 am 05:35 Clear 28 -2.2 23 -5 81 81 W 8 13 30.18 1022 10 16.0934 0 0
5:55 am 05:55 Clear 28 -2.2 23 -5 81 81 WNW 6 9 30.18 1022 10 16.0934 0 0
6:15 am 06:15 Clear 27 -3 22 -5.6 82 82 WNW 6 9 30.18 1022 10 16.0934 0 0
6:35 am 06:35 Clear 26 -3.2 22 -5.7 83 83 WNW 7 11 30.2 1023 10 16.0934 0 0
6:55 am 06:55 Clear 27 -2.7 22 -5.5 81 81 WNW 7 11 30.19 1022 10 16.0934 0 0
7:15 am 07:15 Sunny 27 -3 22 -5.6 82 82 W 7 11 30.19 1022 10 16.0934 0 0
7:35 am 07:35 Partly Cloudy 28 -2.3 22 -5.4 80 80 WNW 6 9 30.19 1022 10 16.0934 0 0
7:55 am 07:55 Mostly Cloudy 30 -1.2 24 -4.7 77 77 WNW 5 7 30.18 1022 10 16.0934 0 0
8:15 am 08:15 Mostly Cloudy 33 0.4 26 -3.5 75 75 NW 9 15 30.17 1022 10 16.0934 0 0
8:35 am 08:35 Mostly Cloudy 35 1.7 27 -2.9 72 72 WNW 8 13 30.17 1022 10 16.0934 0 0
8:55 am 08:55 Mostly Cloudy 34 1.3 26 -3.1 73 73 NW 10 17 30.18 1022 10 16.0934 0 0
9:15 am 09:15 Mostly Cloudy 37 2.5 26 -3.1 67 67 NW 9 15 30.17 1022 10 16.0934 0 0
9:35 am 09:35 Cloudy 37 2.6 27 -3 67 67 NNW 8 13 30.17 1022 10 16.0934 0 0
9:55 am 09:55 Cloudy 37 2.5 27 -3 67 67 NW 8 13 30.18 1022 10 16.0934 0 0
10:15 am 10:15 Cloudy 37 2.9 27 -2.8 66 66 NNW 7 11 30.19 1022 10 16.0934 0 0
10:35 am 10:35 Cloudy 37 2.8 27 -2.8 67 67 NNW 6 9 30.19 1022 10 16.0934 0 0
10:55 am 10:55 Cloudy 37 3 28 -2.5 67 67 NW 8 13 30.2 1023 10 16.0934 0 0
11:15 am 11:15 Cloudy with Light Snow 36 2 30 -1 81 81 WNW 6 9 30.21 1023 2 3.21868 0 0
11:35 am 11:35 Cloudy with Light Snow 36 2 31 -0.5 84 84 WNW 7 11 30.21 1023 4 6.43736 0 0
11:55 am 11:55 Cloudy with Light Snow 35 1.5 32 -0.2 89 89 NW 7 11 30.23 1024 1.25 2.011675 0 0
12:15 pm 12:15 Cloudy with Light Snow 34 1.1 32 0 92 92 NW 8 13 30.24 1024 0.75 1.207005 0.01 0.254
12:35 pm 12:35 Cloudy with Light Snow 34 1 32 0.1 94 94 NNW 5 7 30.25 1024 1.25 2.011675 0.02 0.508
12:55 pm 12:55 Cloudy with Snow 34 1 33 0.3 95 95 NNW 5 7 30.25 1024 0.5 0.80467 0.03 0.762
1:15 pm 13:15 Cloudy with Light Snow 34 1.2 33 0.6 96 96 NNW 7 11 30.25 1025 1.75 2.816345 0.01 0.254
1:35 pm 13:35 Cloudy with Light Snow 34 1.3 33 0.7 96 96 NW 7 11 30.25 1024 3 4.82802 0.01 0.254
1:55 pm 13:55 Cloudy with Light Snow 34 1.3 33 0.7 96 96 NNW 13 20 30.24 1024 1.25 2.011675 0.02 0.508
2:15 pm 14:15 Cloudy with Light Snow 35 1.5 33 0.8 95 95 NW 10 17 30.24 1024 2 3.21868 0 0
2:35 pm 14:35 Cloudy 37 2.7 35 1.6 93 93 NW 12 19 30.23 1024 10 16.0934 0 0
2:55 pm 14:55 Cloudy 37 2.8 33 0.4 84 84 NW 13 20 30.24 1024 10 16.0934 0 0
3:15 pm 15:15 Cloudy 37 3 33 0.4 83 83 NW 14 22 30.24 1024 10 16.0934 0 0
3:35 pm 15:35 Cloudy 37 3 33 0.3 83 83 NW 13 20 30.25 1024 10 16.0934 0 0
3:55 pm 15:55 Cloudy 38 3.5 32 0.2 79 79 NW 12 19 30.23 1024 10 16.0934 0 0
4:15 pm 16:15 Cloudy 39 3.8 32 0.2 78 78 NNW 12 19 30.24 1024 10 16.0934 0 0
4:35 pm 16:35 Cloudy 39 3.8 31 -0.3 75 75 NW 10 17 30.24 1024 10 16.0934 0 0
4:55 pm 16:55 Cloudy 38 3.6 32 -0.1 77 77 NNW 10 17 30.25 1024 10 16.0934 0 0
5:15 pm 17:15 Partly Cloudy 38 3.4 31 -0.8 74 74 NW 12 19 30.26 1025 10 16.0934 0 0
5:35 pm 17:35 Partly Cloudy 38 3.5 31 -0.5 75 75 NW 9 15 30.25 1024 10 16.0934 0 0
5:55 pm 17:55 Partly Cloudy 38 3.3 30 -1.2 73 73 NW 8 13 30.25 1025 10 16.0934 0 0
6:15 pm 18:15 Sunny 37 2.5 30 -1 78 78 WNW 7 11 30.26 1025 10 16.0934 0 0
6:35 pm 18:35 Clear 35 1.7 29 -1.4 80 80 W 7 11 30.28 1025 10 16.0934 0 0
6:55 pm 18:55 Clear 34 1.1 30 -1.3 84 84 W 7 11 30.28 1026 10 16.0934 0 0
7:15 pm 19:15 Clear 33 0.7 29 -1.5 85 85 W 7 11 30.29 1026 10 16.0934 0 0
7:35 pm 19:35 Clear 33 0.7 29 -1.6 85 85 W 6 9 30.29 1026 10 16.0934 0 0
7:55 pm 19:55 Clear 32 -0.1 28 -2.3 85 85 W 5 7 30.3 1026 10 16.0934 0 0
8:15 pm 20:15 Clear 31 -0.6 27 -2.7 86 86 W 6 9 30.29 1026 10 16.0934 0 0
8:35 pm 20:35 Clear 30 -1.1 27 -2.7 89 89 W 6 9 30.3 1026 10 16.0934 0 0
8:55 pm 20:55 Clear 30 -0.9 27 -2.6 88 88 W 6 9 30.29 1026 10 16.0934 0 0
9:15 pm 21:15 Clear 30 -1 27 -3 86 86 W 7 11 30.3 1026 10 16.0934 0 0
9:35 pm 21:35 Clear 31 -0.8 27 -2.9 86 86 WSW 6 9 30.29 1026 10 16.0934 0 0
9:55 pm 21:55 Clear 31 -0.7 27 -3 85 85 W 6 9 30.3 1026 10 16.0934 0 0
10:15 pm 22:15 Clear 31 -0.3 27 -2.6 85 85 W 6 9 30.29 1026 10 16.0934 0 0
10:35 pm 22:35 Clear 32 -0.2 27 -2.7 83 83 W 7 11 30.29 1026 10 16.0934 0 0
10:55 pm 22:55 Clear 32 -0.2 27 -3 82 82 W 7 11 30.29 1026 10 16.0934 0 0
11:15 pm 23:15 Clear 31 -0.7 26 -3.3 83 83 W 6 9 30.27 1025 10 16.0934 0 0
11:35 pm 23:35 Clear 32 0 27 -3 80 80 W 9 15 30.27 1025 10 16.0934 0 0
11:55 pm 23:55 Clear 32 0.1 27 -3 80 80 W 9 15 30.26 1025 10 16.0934 0 0

Powered by AerisWeather